Time,TemperatureF,DewpointF,PressureIn,WindDirection,WindDirectionDegrees,WindSpeedMPH,WindSpeedGustMPH,Humidity,HourlyPrecipIn,Conditions,Clouds,dailyrainin,SoftwareType,DateUTC
2013-04-03 00:00:00,26.9,20.0,30.15,NNW,338,0.0,0.0,75,0.00,CLR,SKC,0.00,WeatherDisplay:10.37,2013-04-03 05:00:00,
2013-04-03 00:05:00,27.0,20.1,30.14,NNW,338,0.0,0.0,75,0.00,CLR,SKC,0.00,WeatherDisplay:10.37,2013-04-03 05:05:00,
2013-04-03 00:10:00,27.0,20.1,30.14,NNW,338,0.0,0.0,75,0.00,CLR,SKC,0.00,WeatherDisplay:10.37,2013-04-03 05:10:00,
2013-04-03 00:15:00,27.1,20.2,30.14,NNW,338,0.0,0.0,75,0.00,CLR,SKC,0.00,WeatherDisplay:10.37,2013-04-03 05:15:00,
2013-04-03 00:20:00,27.0,20.1,30.15,NNW,338,0.0,0.0,75,0.00,CLR,SKC,0.00,WeatherDisplay:10.37,2013-04-03 05:20:00,
2013-04-03 00:25:00,26.7,19.8,30.15,NNW,338,0.0,0.0,75,0.00,CLR,SKC,0.00,WeatherDisplay:10.37,2013-04-03 05:25:00,
2013-04-03 00:30:00,26.6,19.7,30.14,NNW,338,0.0,0.0,75,0.00,CLR,SKC,0.00,WeatherDisplay:10.37,2013-04-03 05:30:00,
2013-04-03 00:35:00,26.5,19.6,30.15,NNW,338,0.0,0.0,75,0.00,CLR,SKC,0.00,WeatherDisplay:10.37,2013-04-03 05:35:00,
2013-04-03 00:40:00,26.4,19.5,30.15,NNW,338,0.0,0.0,75,0.00,CLR,SKC,0.00,WeatherDisplay:10.37,2013-04-03 05:40:00,
2013-04-03 00:45:00,26.4,19.5,30.15,NNW,338,0.0,0.0,75,0.00,CLR,SKC,0.00,WeatherDisplay:10.37,2013-04-03 05:45:00,
2013-04-03 00:50:00,26.3,19.5,30.15,NNW,338,0.0,0.0,75,0.00,CLR,SKC,0.00,WeatherDisplay:10.37,2013-04-03 05:50:00,
2013-04-03 00:55:00,26.4,19.5,30.15,NNW,338,0.0,0.0,75,0.00,CLR,SKC,0.00,WeatherDisplay:10.37,2013-04-03 05:55:00,
2013-04-03 01:00:00,26.3,19.8,30.15,NNW,338,0.0,0.0,76,0.00,CLR,SKC,0.00,WeatherDisplay:10.37,2013-04-03 06:00:00,
2013-04-03 01:07:00,26.2,19.4,30.15,NNW,338,0.0,0.0,75,0.00,CLR,SKC,0.00,WeatherDisplay:10.37,2013-04-03 06:07:00,
2013-04-03 01:12:00,26.3,19.5,30.15,NNW,338,0.0,0.0,75,0.00,CLR,SKC,0.00,WeatherDisplay:10.37,2013-04-03 06:12:00,
2013-04-03 01:17:00,26.3,19.8,30.15,NNW,338,0.0,0.0,76,0.00,CLR,SKC,0.00,WeatherDisplay:10.37,2013-04-03 06:17:00,
2013-04-03 01:22:00,26.4,19.5,30.15,NNW,338,0.0,0.0,75,0.00,CLR,SKC,0.00,WeatherDisplay:10.37,2013-04-03 06:22:00,
2013-04-03 01:28:00,26.3,19.8,30.15,NNW,338,0.0,0.0,76,0.00,CLR,SKC,0.00,WeatherDisplay:10.37,2013-04-03 06:28:00,
2013-04-03 01:33:00,26.2,19.4,30.15,NNW,338,0.0,0.0,75,0.00,CLR,SKC,0.00,WeatherDisplay:10.37,2013-04-03 06:33:00,
2013-04-03 01:38:00,26.2,19.4,30.15,NNW,338,0.0,0.0,75,0.00,CLR,SKC,0.00,WeatherDisplay:10.37,2013-04-03 06:38:00,
2013-04-03 01:43:00,26.1,19.3,30.15,NNW,338,0.0,0.0,75,0.00,CLR,SKC,0.00,WeatherDisplay:10.37,2013-04-03 06:43:00,
2013-04-03 01:48:00,26.0,19.2,30.16,NNW,338,0.0,0.0,75,0.00,CLR,SKC,0.00,WeatherDisplay:10.37,2013-04-03 06:48:00,
2013-04-03 01:53:00,26.0,19.2,30.16,NNW,338,0.0,0.0,75,0.00,CLR,SKC,0.00,WeatherDisplay:10.37,2013-04-03 06:53:00,
2013-04-03 01:58:00,26.0,19.2,30.16,NNW,338,0.0,0.0,75,0.00,CLR,SKC,0.00,WeatherDisplay:10.37,2013-04-03 06:58:00,
2013-04-03 02:03:00,25.9,19.4,30.16,NNW,338,0.0,0.0,76,0.00,CLR,SKC,0.00,WeatherDisplay:10.37,2013-04-03 07:03:00,
2013-04-03 02:08:00,25.9,19.4,30.16,NNW,338,0.0,0.0,76,0.00,CLR,SKC,0.00,WeatherDisplay:10.37,2013-04-03 07:08:00,
2013-04-03 02:13:00,25.7,19.2,30.16,NNW,338,0.0,0.0,76,0.00,CLR,SKC,0.00,WeatherDisplay:10.37,2013-04-03 07:13:00,
2013-04-03 02:18:00,25.6,19.1,30.16,NNW,338,0.0,0.0,76,0.00,CLR,SKC,0.00,WeatherDisplay:10.37,2013-04-03 07:18:00,
2013-04-03 02:23:00,25.5,19.0,30.15,NNW,338,0.0,0.0,76,0.00,CLR,SKC,0.00,WeatherDisplay:10.37,2013-04-03 07:23:00,
2013-04-03 02:28:00,25.4,18.9,30.16,NNW,338,0.0,0.0,76,0.00,CLR,SKC,0.00,WeatherDisplay:10.37,2013-04-03 07:28:00,
2013-04-03 02:33:00,25.4,18.6,30.16,NNW,338,0.0,0.0,75,0.00,CLR,SKC,0.00,WeatherDisplay:10.37,2013-04-03 07:33:00,
2013-04-03 02:39:00,25.3,18.8,30.16,NNW,338,0.0,1.1,76,0.00,CLR,SKC,0.00,WeatherDisplay:10.37,2013-04-03 07:39:00,
2013-04-03 02:44:00,25.2,19.0,30.16,NNW,338,0.0,0.0,77,0.00,CLR,SKC,0.00,WeatherDisplay:10.37,2013-04-03 07:44:00,
2013-04-03 02:49:00,25.1,18.9,30.16,NNW,338,0.0,0.0,77,0.00,CLR,SKC,0.00,WeatherDisplay:10.37,2013-04-03 07:49:00,
2013-04-03 02:54:00,25.0,18.8,30.16,NNW,338,0.0,0.0,77,0.00,CLR,SKC,0.00,WeatherDisplay:10.37,2013-04-03 07:54:00,
2013-04-03 02:59:00,25.1,18.9,30.16,NNW,338,0.0,0.0,77,0.00,CLR,SKC,0.00,WeatherDisplay:10.37,2013-04-03 07:59:00,
2013-04-03 03:04:00,25.1,18.9,30.16,NNW,338,0.0,0.0,77,0.00,CLR,SKC,0.00,WeatherDisplay:10.37,2013-04-03 08:04:00,
2013-04-03 03:10:00,25.0,18.8,30.16,NNW,338,0.0,0.0,77,0.00,CLR,SKC,0.00,WeatherDisplay:10.37,2013-04-03 08:10:00,
2013-04-03 03:15:00,24.9,18.7,30.16,NNW,338,0.0,0.0,77,0.00,CLR,SKC,0.00,WeatherDisplay:10.37,2013-04-03 08:15:00,
2013-04-03 03:20:00,24.8,18.6,30.16,NNW,338,0.0,0.0,77,0.00,CLR,SKC,0.00,WeatherDisplay:10.37,2013-04-03 08:20:00,
2013-04-03 03:25:00,24.8,18.3,30.16,NNW,338,0.0,0.0,76,0.00,CLR,SKC,0.00,WeatherDisplay:10.37,2013-04-03 08:25:00,
2013-04-03 03:30:00,24.8,18.3,30.16,NNW,338,0.0,0.0,76,0.00,CLR,SKC,0.00,WeatherDisplay:10.37,2013-04-03 08:30:00,
2013-04-03 03:35:00,25.0,18.5,30.16,NNW,338,0.0,0.0,76,0.00,CLR,SKC,0.00,WeatherDisplay:10.37,2013-04-03 08:35:00,
2013-04-03 03:40:00,25.1,18.6,30.16,NNW,338,0.0,0.0,76,0.00,CLR,SKC,0.00,WeatherDisplay:10.37,2013-04-03 08:40:00,
2013-04-03 03:45:00,25.3,18.8,30.16,NNW,338,0.0,0.0,76,0.00,CLR,SKC,0.00,WeatherDisplay:10.37,2013-04-03 08:45:00,
2013-04-03 03:50:00,25.5,18.7,30.16,NNW,338,0.0,0.0,75,0.00,CLR,SKC,0.00,WeatherDisplay:10.37,2013-04-03 08:50:00,
2013-04-03 03:55:00,25.5,18.7,30.16,NNW,338,0.0,0.0,75,0.00,CLR,SKC,0.00,WeatherDisplay:10.37,2013-04-03 08:55:00,
2013-04-03 04:00:00,25.5,19.0,30.16,NNW,338,0.0,0.0,76,0.00,CLR,SKC,0.00,WeatherDisplay:10.37,2013-04-03 09:00:00,
2013-04-03 04:05:00,25.3,18.8,30.16,NNW,338,0.1,1.1,76,0.00,CLR,SKC,0.00,WeatherDisplay:10.37,2013-04-03 09:05:00,
2013-04-03 04:11:00,25.1,18.6,30.16,NNW,338,0.0,0.0,76,0.00,CLR,SKC,0.00,WeatherDisplay:10.37,2013-04-03 09:11:00,
2013-04-03 04:16:00,24.9,18.4,30.16,NNW,338,0.0,0.0,76,0.00,CLR,SKC,0.00,WeatherDisplay:10.37,2013-04-03 09:16:00,
2013-04-03 04:21:00,25.0,18.5,30.16,NNW,338,0.0,0.0,76,0.00,CLR,SKC,0.00,WeatherDisplay:10.37,2013-04-03 09:21:00,
2013-04-03 04:26:00,25.0,18.5,30.16,NNW,338,0.0,0.0,76,0.00,CLR,SKC,0.00,WeatherDisplay:10.37,2013-04-03 09:26:00,
2013-04-03 04:31:00,25.1,18.6,30.16,NNW,338,0.0,0.0,76,0.00,CLR,SKC,0.00,WeatherDisplay:10.37,2013-04-03 09:31:00,
2013-04-03 04:37:00,25.1,18.3,30.16,NNW,338,0.0,0.0,75,0.00,CLR,SKC,0.00,WeatherDisplay:10.37,2013-04-03 09:37:00,
2013-04-03 04:42:00,25.1,18.3,30.16,NNW,338,0.0,0.0,75,0.00,CLR,SKC,0.00,WeatherDisplay:10.37,2013-04-03 09:42:00,
2013-04-03 04:47:00,25.1,18.6,30.16,NNW,338,0.0,0.0,76,0.00,CLR,SKC,0.00,WeatherDisplay:10.37,2013-04-03 09:47:00,
2013-04-03 04:52:00,24.9,18.4,30.16,NNW,338,0.0,0.0,76,0.00,CLR,SKC,0.00,WeatherDisplay:10.37,2013-04-03 09:52:00,
2013-04-03 04:57:00,24.8,18.3,30.17,NNW,338,0.0,0.0,76,0.00,CLR,SKC,0.00,WeatherDisplay:10.37,2013-04-03 09:57:00,
2013-04-03 05:02:00,24.7,18.5,30.17,NNW,338,0.0,0.0,77,0.00,CLR,SKC,0.00,WeatherDisplay:10.37,2013-04-03 10:02:00,
2013-04-03 05:08:00,24.5,18.3,30.17,NNW,338,0.0,0.0,77,0.00,CLR,SKC,0.00,WeatherDisplay:10.37,2013-04-03 10:08:00,
2013-04-03 05:13:00,24.4,18.2,30.17,NNW,338,0.0,0.0,77,0.00,CLR,SKC,0.00,WeatherDisplay:10.37,2013-04-03 10:13:00,
2013-04-03 05:18:00,24.2,18.0,30.17,NNW,338,0.0,0.0,77,0.00,CLR,SKC,0.00,WeatherDisplay:10.37,2013-04-03 10:18:00,
2013-04-03 05:23:00,24.1,17.9,30.17,NNW,338,0.0,0.0,77,0.00,CLR,SKC,0.00,WeatherDisplay:10.37,2013-04-03 10:23:00,
2013-04-03 05:28:00,24.0,17.8,30.17,NNW,338,0.0,0.0,77,0.00,CLR,SKC,0.00,WeatherDisplay:10.37,2013-04-03 10:28:00,
2013-04-03 05:33:00,23.9,17.7,30.17,NNW,338,0.0,0.0,77,0.00,CLR,SKC,0.00,WeatherDisplay:10.37,2013-04-03 10:33:00,
2013-04-03 05:38:00,23.9,17.7,30.17,NNW,338,0.0,0.0,77,0.00,CLR,SKC,0.00,WeatherDisplay:10.37,2013-04-03 10:38:00,
2013-04-03 05:43:00,23.8,17.6,30.17,NNW,338,0.0,0.0,77,0.00,CLR,SKC,0.00,WeatherDisplay:10.37,2013-04-03 10:43:00,
2013-04-03 05:48:00,23.8,17.6,30.17,NNW,338,0.0,0.0,77,0.00,CLR,SKC,0.00,WeatherDisplay:10.37,2013-04-03 10:48:00,
2013-04-03 05:53:00,23.8,17.3,30.17,NNW,338,0.0,0.0,76,0.00,CLR,SKC,0.00,WeatherDisplay:10.37,2013-04-03 10:53:00,
2013-04-03 05:58:00,23.8,17.3,30.18,NNW,338,0.1,2.3,76,0.00,CLR,SKC,0.00,WeatherDisplay:10.37,2013-04-03 10:58:00,
2013-04-03 06:03:00,23.7,17.2,30.17,NNW,337,0.0,0.0,76,0.00,CLR,SKC,0.00,WeatherDisplay:10.37,2013-04-03 11:03:00,
2013-04-03 06:08:00,23.8,17.3,30.17,NNW,337,0.0,0.0,76,0.00,CLR,SKC,0.00,WeatherDisplay:10.37,2013-04-03 11:08:00,
2013-04-03 06:13:00,23.8,17.3,30.17,NNW,337,0.0,0.0,76,0.00,CLR,SKC,0.00,WeatherDisplay:10.37,2013-04-03 11:13:00,
2013-04-03 06:18:00,23.7,17.2,30.17,NNW,337,0.0,0.0,76,0.00,CLR,SKC,0.00,WeatherDisplay:10.37,2013-04-03 11:18:00,
2013-04-03 06:23:00,23.6,17.4,30.17,NNW,340,0.6,1.1,77,0.00,CLR,SKC,0.00,WeatherDisplay:10.37,2013-04-03 11:23:00,
2013-04-03 06:28:00,23.6,17.7,30.17,NNW,340,0.0,1.1,78,0.00,CLR,SKC,0.00,WeatherDisplay:10.37,2013-04-03 11:28:00,
2013-04-03 06:33:00,23.6,17.7,30.18,NNW,340,0.0,2.3,78,0.00,CLR,SKC,0.00,WeatherDisplay:10.37,2013-04-03 11:33:00,
2013-04-03 06:38:00,23.6,18.0,30.18,NNW,340,0.0,0.0,79,0.00,CLR,SKC,0.00,WeatherDisplay:10.37,2013-04-03 11:38:00,
2013-04-03 06:43:00,23.6,18.0,30.18,NNW,340,0.1,1.1,79,0.00,CLR,SKC,0.00,WeatherDisplay:10.37,2013-04-03 11:43:00,
2013-04-03 06:48:00,23.6,18.0,30.18,NNW,340,0.0,0.0,79,0.00,CLR,SKC,0.00,WeatherDisplay:10.37,2013-04-03 11:48:00,
2013-04-03 06:53:00,23.6,18.0,30.19,NNW,340,0.0,0.0,79,0.00,CLR,SKC,0.00,WeatherDisplay:10.37,2013-04-03 11:53:00,
2013-04-03 06:58:00,23.6,18.0,30.19,NNW,340,0.0,0.0,79,0.00,CLR,SKC,0.00,WeatherDisplay:10.37,2013-04-03 11:58:00,
2013-04-03 07:03:00,23.6,18.0,30.19,NNW,340,1.2,2.3,79,0.00,CLR,SKC,0.00,WeatherDisplay:10.37,2013-04-03 12:03:00,
2013-04-03 07:08:00,23.8,18.2,30.19,NNW,339,1.4,2.3,79,0.00,CLR,SKC,0.00,WeatherDisplay:10.37,2013-04-03 12:08:00,
2013-04-03 07:13:00,24.0,18.4,30.20,NNW,339,1.4,2.3,79,0.00,CLR,SKC,0.00,WeatherDisplay:10.37,2013-04-03 12:13:00,
2013-04-03 07:18:00,24.3,18.7,30.20,NNW,338,1.7,3.5,79,0.00,CLR,SKC,0.00,WeatherDisplay:10.37,2013-04-03 12:18:00,
2013-04-03 07:23:00,24.6,19.0,30.20,NNW,338,2.2,3.5,79,0.00,CLR,SKC,0.00,WeatherDisplay:10.37,2013-04-03 12:23:00,
2013-04-03 07:28:00,25.0,19.4,30.20,SE,146,3.2,5.0,79,0.00,CLR,SKC,0.00,WeatherDisplay:10.37,2013-04-03 12:28:00,
2013-04-03 07:33:00,25.8,19.9,30.20,SSE,161,4.4,5.8,78,0.00,CLR,SKC,0.00,WeatherDisplay:10.37,2013-04-03 12:33:00,
2013-04-03 07:38:00,26.5,20.3,30.20,SSE,161,4.0,5.8,77,0.00,CLR,SKC,0.00,WeatherDisplay:10.37,2013-04-03 12:38:00,
2013-04-03 07:43:00,27.1,20.8,30.20,SSE,161,4.0,5.0,77,0.00,CLR,SKC,0.00,WeatherDisplay:10.37,2013-04-03 12:43:00,
2013-04-03 07:48:00,28.0,21.4,30.21,South,180,5.3,7.0,76,0.00,CLR,SKC,0.00,WeatherDisplay:10.37,2013-04-03 12:48:00,
2013-04-03 07:53:00,28.7,22.1,30.21,South,184,4.4,6.9,76,0.00,CLR,SKC,0.00,WeatherDisplay:10.37,2013-04-03 12:53:00,
2013-04-03 07:58:00,29.4,22.8,30.21,South,187,3.8,6.9,76,0.00,CLR,SKC,0.00,WeatherDisplay:10.37,2013-04-03 12:58:00,
2013-04-03 08:03:00,29.9,22.9,30.21,South,187,4.3,5.0,75,0.00,CLR,SKC,0.00,WeatherDisplay:10.37,2013-04-03 13:03:00,
2013-04-03 08:08:00,30.3,23.6,30.21,South,184,5.8,8.1,76,0.00,CLR,SKC,0.00,WeatherDisplay:10.37,2013-04-03 13:08:00,
2013-04-03 08:13:00,30.7,23.7,30.20,South,188,5.7,8.1,75,0.00,CLR,SKC,0.00,WeatherDisplay:10.37,2013-04-03 13:13:00,
2013-04-03 08:18:00,31.0,24.3,30.20,South,179,5.0,7.0,76,0.00,CLR,SKC,0.00,WeatherDisplay:10.37,2013-04-03 13:18:00,
2013-04-03 08:23:00,31.4,24.4,30.20,South,178,3.6,5.8,75,0.00,CLR,SKC,0.00,WeatherDisplay:10.37,2013-04-03 13:23:00,
2013-04-03 08:28:00,31.6,24.6,30.19,South,173,4.6,6.0,75,0.00,CLR,SKC,0.00,WeatherDisplay:10.37,2013-04-03 13:28:00,
2013-04-03 08:33:00,31.9,24.9,30.19,SSE,162,7.2,9.2,75,0.00,CLR,SKC,0.00,WeatherDisplay:10.37,2013-04-03 13:33:00,
2013-04-03 08:38:00,32.0,25.0,30.19,SSE,160,5.7,8.1,75,0.00,CLR,SKC,0.00,WeatherDisplay:10.37,2013-04-03 13:38:00,
2013-04-03 08:43:00,32.4,25.0,30.18,SSE,156,5.6,7.0,74,0.00,CLR,SKC,0.00,WeatherDisplay:10.37,2013-04-03 13:43:00,
2013-04-03 08:48:00,32.9,25.5,30.19,SE,142,5.2,7.0,74,0.00,CLR,SKC,0.00,WeatherDisplay:10.37,2013-04-03 13:48:00,
2013-04-03 08:53:00,33.0,25.6,30.19,SSE,149,8.0,10.4,74,0.00,CLR,SKC,0.00,WeatherDisplay:10.37,2013-04-03 13:53:00,
2013-04-03 08:58:00,33.3,25.9,30.18,SE,142,6.3,10.4,74,0.00,CLR,SKC,0.00,WeatherDisplay:10.37,2013-04-03 13:58:00,
2013-04-03 09:03:00,33.5,25.8,30.18,SSE,151,7.4,11.5,73,0.00,CLR,SKC,0.00,WeatherDisplay:10.37,2013-04-03 14:03:00,
2013-04-03 09:08:00,33.7,26.0,30.18,SSE,159,7.1,10.4,73,0.00,CLR,SKC,0.00,WeatherDisplay:10.37,2013-04-03 14:08:00,
2013-04-03 09:13:00,34.1,26.7,30.19,SSE,159,8.0,10.4,74,0.00,CLR,SKC,0.00,WeatherDisplay:10.37,2013-04-03 14:13:00,
2013-04-03 09:18:00,34.2,25.8,30.18,SSE,154,10.2,12.7,71,0.00,CLR,SKC,0.00,WeatherDisplay:10.37,2013-04-03 14:18:00,
2013-04-03 09:23:00,34.3,25.2,30.18,SSE,149,8.1,11.5,69,0.00,CLR,SKC,0.00,WeatherDisplay:10.37,2013-04-03 14:23:00,
2013-04-03 09:28:00,34.4,25.3,30.18,SSE,154,9.3,12.7,69,0.00,CLR,SKC,0.00,WeatherDisplay:10.37,2013-04-03 14:28:00,
2013-04-03 09:33:00,34.8,26.0,30.17,SSE,154,8.5,12.0,70,0.00,CLR,SKC,0.00,WeatherDisplay:10.37,2013-04-03 14:33:00,
2013-04-03 09:38:00,34.6,24.8,30.17,SSE,159,10.8,13.8,67,0.00,CLR,SKC,0.00,WeatherDisplay:10.37,2013-04-03 14:38:00,
2013-04-03 09:43:00,34.8,25.3,30.17,SSE,150,11.4,13.0,68,0.00,CLR,SKC,0.00,WeatherDisplay:10.37,2013-04-03 14:43:00,
2013-04-03 09:48:00,35.0,25.5,30.17,SSE,159,11.0,13.8,68,0.00,CLR,SKC,0.00,WeatherDisplay:10.37,2013-04-03 14:48:00,
2013-04-03 09:53:00,35.3,25.1,30.16,SSE,155,10.2,13.0,66,0.00,CLR,SKC,0.00,WeatherDisplay:10.37,2013-04-03 14:53:00,
2013-04-03 09:58:00,35.7,26.2,30.16,SE,142,10.6,13.0,68,0.00,CLR,SKC,0.00,WeatherDisplay:10.37,2013-04-03 14:58:00,
2013-04-03 10:03:00,35.6,25.7,30.16,SSE,147,9.9,15.0,67,0.00,CLR,SKC,0.00,WeatherDisplay:10.37,2013-04-03 15:03:00,
2013-04-03 10:08:00,35.7,25.1,30.16,SSE,151,10.3,12.7,65,0.00,CLR,SKC,0.00,WeatherDisplay:10.37,2013-04-03 15:08:00,
2013-04-03 10:13:00,35.8,24.8,30.16,SSE,150,10.5,14.0,64,0.00,CLR,SKC,0.00,WeatherDisplay:10.37,2013-04-03 15:13:00,
2013-04-03 10:18:00,35.8,25.2,30.16,SSE,159,9.4,13.8,65,0.00,CLR,SKC,0.00,WeatherDisplay:10.37,2013-04-03 15:18:00,
2013-04-03 10:23:00,36.1,25.5,30.16,SE,146,10.6,13.8,65,0.00,CLR,SKC,0.00,WeatherDisplay:10.37,2013-04-03 15:23:00,
2013-04-03 10:28:00,36.6,27.0,30.16,South,175,9.8,13.8,68,0.00,CLR,SKC,0.00,WeatherDisplay:10.37,2013-04-03 15:28:00,
2013-04-03 10:33:00,36.4,25.4,30.16,SSE,158,11.1,15.0,64,0.00,CLR,SKC,0.00,WeatherDisplay:10.37,2013-04-03 15:33:00,
2013-04-03 10:38:00,36.2,26.3,30.16,SSE,163,10.4,13.0,67,0.00,CLR,SKC,0.00,WeatherDisplay:10.37,2013-04-03 15:38:00,
2013-04-03 10:43:00,36.3,25.3,30.16,SSE,165,12.7,14.0,64,0.00,CLR,SKC,0.00,WeatherDisplay:10.37,2013-04-03 15:43:00,
2013-04-03 10:48:00,36.5,25.8,30.16,SSE,163,10.9,16.1,65,0.00,CLR,SKC,0.00,WeatherDisplay:10.37,2013-04-03 15:48:00,
2013-04-03 10:53:00,36.7,26.4,30.16,South,183,10.1,15.0,66,0.00,CLR,SKC,0.00,WeatherDisplay:10.37,2013-04-03 15:53:00,
2013-04-03 10:58:00,36.6,25.6,30.16,SSE,167,10.5,13.8,64,0.00,CLR,SKC,0.00,WeatherDisplay:10.37,2013-04-03 15:58:00,
2013-04-03 11:03:00,36.8,26.5,30.16,SSE,154,13.6,18.4,66,0.00,CLR,SKC,0.00,WeatherDisplay:10.37,2013-04-03 16:03:00,
2013-04-03 11:09:00,36.9,26.6,30.16,SSE,161,12.8,16.1,66,0.00,CLR,SKC,0.00,WeatherDisplay:10.37,2013-04-03 16:09:00,
2013-04-03 11:14:00,37.1,26.4,30.15,South,173,10.9,16.1,65,0.00,CLR,SKC,0.00,WeatherDisplay:10.37,2013-04-03 16:14:00,
2013-04-03 11:20:00,37.3,27.0,30.15,South,169,11.3,13.8,66,0.00,CLR,SKC,0.00,WeatherDisplay:10.37,2013-04-03 16:20:00,
2013-04-03 11:25:00,37.5,26.8,30.15,South,169,11.4,14.0,65,0.00,CLR,SKC,0.00,WeatherDisplay:10.37,2013-04-03 16:25:00,
2013-04-03 11:30:00,37.8,27.8,30.15,SSE,158,11.8,15.0,67,0.00,CLR,SKC,0.00,WeatherDisplay:10.37,2013-04-03 16:30:00,
2013-04-03 11:35:00,37.7,27.4,30.15,SSE,161,14.3,17.3,66,0.00,CLR,SKC,0.00,WeatherDisplay:10.37,2013-04-03 16:35:00,
2013-04-03 11:40:00,37.7,27.7,30.15,SSE,162,12.7,15.0,67,0.00,CLR,SKC,0.00,WeatherDisplay:10.37,2013-04-03 16:40:00,
2013-04-03 11:45:00,37.9,27.5,30.15,SSE,158,12.2,16.1,66,0.00,CLR,SKC,0.00,WeatherDisplay:10.37,2013-04-03 16:45:00,
2013-04-03 11:50:00,38.1,27.7,30.15,SSE,160,10.7,13.0,66,0.00,CLR,SKC,0.00,WeatherDisplay:10.37,2013-04-03 16:50:00,
2013-04-03 11:55:00,38.6,28.6,30.15,SE,140,12.4,15.0,67,0.00,CLR,SKC,0.00,WeatherDisplay:10.37,2013-04-03 16:55:00,
2013-04-03 12:00:00,38.6,28.2,30.15,SSE,167,12.5,17.3,66,0.00,CLR,SKC,0.00,WeatherDisplay:10.37,2013-04-03 17:00:00,
2013-04-03 12:05:00,38.8,28.8,30.15,SSE,155,12.2,18.4,67,0.00,CLR,SKC,0.00,WeatherDisplay:10.37,2013-04-03 17:05:00,
2013-04-03 12:10:00,38.7,27.6,30.15,SSE,154,13.4,17.3,64,0.00,CLR,SKC,0.00,WeatherDisplay:10.37,2013-04-03 17:10:00,
2013-04-03 12:15:00,38.7,27.6,30.15,SSE,155,13.3,19.6,64,0.00,CLR,SKC,0.00,WeatherDisplay:10.37,2013-04-03 17:15:00,
2013-04-03 12:20:00,39.2,29.5,30.14,SSE,165,13.0,16.1,68,0.00,CLR,SKC,0.00,WeatherDisplay:10.37,2013-04-03 17:20:00,
2013-04-03 12:25:00,39.2,29.2,30.14,SSE,165,14.1,19.0,67,0.00,CLR,SKC,0.00,WeatherDisplay:10.37,2013-04-03 17:25:00,
2013-04-03 12:30:00,39.2,29.2,30.14,SSE,167,12.7,16.0,67,0.00,CLR,SKC,0.00,WeatherDisplay:10.37,2013-04-03 17:30:00,
2013-04-03 12:35:00,39.2,28.8,30.14,SSE,163,14.0,19.6,66,0.00,CLR,SKC,0.00,WeatherDisplay:10.37,2013-04-03 17:35:00,
2013-04-03 12:40:00,39.5,29.1,30.14,SSE,158,15.1,19.6,66,0.00,CLR,SKC,0.00,WeatherDisplay:10.37,2013-04-03 17:40:00,
2013-04-03 12:45:00,39.7,29.3,30.14,South,171,14.2,18.4,66,0.00,CLR,SKC,0.00,WeatherDisplay:10.37,2013-04-03 17:45:00,
2013-04-03 12:50:00,39.8,28.6,30.14,SSE,155,13.7,15.0,64,0.00,CLR,SKC,0.00,WeatherDisplay:10.37,2013-04-03 17:50:00,
2013-04-03 12:55:00,39.9,28.7,30.13,SSE,157,14.9,20.0,64,0.00,CLR,SKC,0.00,WeatherDisplay:10.37,2013-04-03 17:55:00,
2013-04-03 13:01:00,40.1,29.3,30.13,SSE,155,14.1,19.6,65,0.00,CLR,SKC,0.00,WeatherDisplay:10.37,2013-04-03 18:01:00,
2013-04-03 13:07:00,40.1,30.0,30.13,SSE,152,16.5,19.6,67,0.00,CLR,SKC,0.00,WeatherDisplay:10.37,2013-04-03 18:07:00,
2013-04-03 13:12:00,40.4,30.7,30.13,SSE,161,13.2,18.4,68,0.00,CLR,SKC,0.00,WeatherDisplay:10.37,2013-04-03 18:12:00,
2013-04-03 13:18:00,40.7,30.2,30.13,SSE,163,13.5,17.3,66,0.00,CLR,SKC,0.00,WeatherDisplay:10.37,2013-04-03 18:18:00,
2013-04-03 13:23:00,41.1,31.3,30.12,SSE,155,17.2,21.0,68,0.00,SCT,SKC,0.00,WeatherDisplay:10.37,2013-04-03 18:23:00,
2013-04-03 13:28:00,41.1,31.7,30.12,SSE,155,14.6,18.4,69,0.00,SCT,SKC,0.00,WeatherDisplay:10.37,2013-04-03 18:28:00,
2013-04-03 13:33:00,41.2,31.8,30.12,SSE,157,12.5,19.6,69,0.00,SCT,SKC,0.00,WeatherDisplay:10.37,2013-04-03 18:33:00,
2013-04-03 13:38:00,41.4,31.6,30.12,SSE,167,15.6,21.9,68,0.00,SCT,SKC,0.00,WeatherDisplay:10.37,2013-04-03 18:38:00,
2013-04-03 13:43:00,41.5,31.7,30.12,South,174,14.5,18.4,68,0.00,BKN,SKC,0.00,WeatherDisplay:10.37,2013-04-03 18:43:00,
2013-04-03 13:49:00,41.9,32.1,30.11,SSE,166,13.9,19.6,68,0.00,BKN,SKC,0.00,WeatherDisplay:10.37,2013-04-03 18:49:00,
2013-04-03 13:54:00,41.5,31.0,30.11,SSE,156,12.5,17.3,66,0.00,BKN,SKC,0.00,WeatherDisplay:10.37,2013-04-03 18:54:00,
2013-04-03 14:00:00,41.9,31.4,30.11,South,171,14.4,16.1,66,0.00,BKN,SKC,0.00,WeatherDisplay:10.37,2013-04-03 19:00:00,
2013-04-03 14:05:00,42.0,30.7,30.11,South,174,13.6,19.6,64,0.00,SCT,SKC,0.00,WeatherDisplay:10.37,2013-04-03 19:05:00,
2013-04-03 14:10:00,42.3,31.0,30.11,SSE,165,12.0,18.4,64,0.00,SCT,SKC,0.00,WeatherDisplay:10.37,2013-04-03 19:10:00,
2013-04-03 14:15:00,42.5,32.3,30.11,South,172,13.7,18.4,67,0.00,SCT,SKC,0.00,WeatherDisplay:10.37,2013-04-03 19:15:00,
2013-04-03 14:21:00,42.3,32.1,30.10,SSE,167,17.0,21.0,67,0.00,CLR,SKC,0.00,WeatherDisplay:10.37,2013-04-03 19:21:00,
2013-04-03 14:27:00,42.3,32.5,30.10,SSE,157,15.9,20.7,68,0.00,CLR,SKC,0.00,WeatherDisplay:10.37,2013-04-03 19:27:00,
2013-04-03 14:32:00,42.5,31.6,30.10,South,170,10.4,19.6,65,0.00,CLR,SKC,0.00,WeatherDisplay:10.37,2013-04-03 19:32:00,
2013-04-03 14:37:00,42.8,32.2,30.10,SSE,159,17.5,21.0,66,0.00,CLR,SKC,0.00,WeatherDisplay:10.37,2013-04-03 19:37:00,
2013-04-03 14:42:00,43.0,33.2,30.09,South,185,14.9,20.0,68,0.00,CLR,SKC,0.00,WeatherDisplay:10.37,2013-04-03 19:42:00,
2013-04-03 14:47:00,43.2,33.0,30.09,SSE,166,15.3,19.6,67,0.00,CLR,SKC,0.00,WeatherDisplay:10.37,2013-04-03 19:47:00,
2013-04-03 14:52:00,43.1,32.5,30.09,South,169,16.9,20.7,66,0.00,CLR,SKC,0.00,WeatherDisplay:10.37,2013-04-03 19:52:00,
2013-04-03 14:58:00,43.3,33.4,30.09,South,169,14.0,19.6,68,0.00,CLR,SKC,0.00,WeatherDisplay:10.37,2013-04-03 19:58:00,
2013-04-03 15:03:00,43.5,32.9,30.09,SSE,153,14.7,18.4,66,0.00,CLR,SKC,0.00,WeatherDisplay:10.37,2013-04-03 20:03:00,
2013-04-03 15:09:00,43.7,32.7,30.09,South,178,13.4,17.3,65,0.00,CLR,SKC,0.00,WeatherDisplay:10.37,2013-04-03 20:09:00,
2013-04-03 15:15:00,43.6,33.4,30.08,South,178,17.9,24.2,67,0.00,CLR,SKC,0.00,WeatherDisplay:10.37,2013-04-03 20:15:00,
2013-04-03 15:21:00,43.7,32.7,30.08,SSE,168,14.0,24.0,65,0.00,CLR,SKC,0.00,WeatherDisplay:10.37,2013-04-03 20:21:00,
2013-04-03 15:26:00,43.7,32.3,30.08,SSE,163,14.3,20.0,64,0.00,CLR,SKC,0.00,WeatherDisplay:10.37,2013-04-03 20:26:00,
2013-04-03 15:31:00,43.7,32.3,30.07,South,180,11.8,17.3,64,0.00,CLR,SKC,0.00,WeatherDisplay:10.37,2013-04-03 20:31:00,
2013-04-03 15:37:00,43.9,33.3,30.07,SSE,154,15.0,19.0,66,0.00,CLR,SKC,0.00,WeatherDisplay:10.37,2013-04-03 20:37:00,
2013-04-03 15:42:00,44.0,33.4,30.07,South,172,11.0,18.4,66,0.00,CLR,SKC,0.00,WeatherDisplay:10.37,2013-04-03 20:42:00,
2013-04-03 15:47:00,44.2,32.4,30.06,South,169,14.9,18.4,63,0.00,CLR,SKC,0.00,WeatherDisplay:10.37,2013-04-03 20:47:00,
2013-04-03 15:52:00,44.1,33.1,30.06,SSE,168,12.2,18.4,65,0.00,CLR,SKC,0.00,WeatherDisplay:10.37,2013-04-03 20:52:00,
2013-04-03 15:57:00,44.1,32.3,30.06,South,178,13.2,19.6,63,0.00,CLR,SKC,0.00,WeatherDisplay:10.37,2013-04-03 20:57:00,
2013-04-03 16:02:00,44.1,32.3,30.05,SSE,161,11.9,17.3,63,0.00,CLR,SKC,0.00,WeatherDisplay:10.37,2013-04-03 21:02:00,
2013-04-03 16:08:00,44.3,32.5,30.05,SSE,168,12.9,21.0,63,0.00,CLR,SKC,0.00,WeatherDisplay:10.37,2013-04-03 21:08:00,
2013-04-03 16:13:00,44.2,33.6,30.05,South,172,14.1,18.4,66,0.00,CLR,SKC,0.00,WeatherDisplay:10.37,2013-04-03 21:13:00,
2013-04-03 16:18:00,44.3,34.0,30.05,South,186,13.1,16.1,67,0.00,CLR,SKC,0.00,WeatherDisplay:10.37,2013-04-03 21:18:00,
2013-04-03 16:23:00,44.1,31.9,30.04,SSE,153,12.7,20.0,62,0.00,CLR,SKC,0.00,WeatherDisplay:10.37,2013-04-03 21:23:00,
2013-04-03 16:28:00,44.0,32.6,30.04,South,174,10.6,17.3,64,0.00,CLR,SKC,0.00,WeatherDisplay:10.37,2013-04-03 21:28:00,
2013-04-03 16:33:00,44.3,34.0,30.04,South,179,13.3,17.3,67,0.00,CLR,SKC,0.00,WeatherDisplay:10.37,2013-04-03 21:33:00,
2013-04-03 16:38:00,44.4,33.4,30.04,SSW,194,10.5,14.0,65,0.00,CLR,SKC,0.00,WeatherDisplay:10.37,2013-04-03 21:38:00,
2013-04-03 16:43:00,44.2,32.8,30.04,South,180,13.0,22.0,64,0.00,CLR,SKC,0.00,WeatherDisplay:10.37,2013-04-03 21:43:00,
2013-04-03 16:48:00,44.1,33.5,30.03,SSE,165,15.0,21.0,66,0.00,CLR,SKC,0.00,WeatherDisplay:10.37,2013-04-03 21:48:00,
2013-04-03 16:53:00,44.0,32.6,30.03,South,173,12.4,18.4,64,0.00,CLR,SKC,0.00,WeatherDisplay:10.37,2013-04-03 21:53:00,
2013-04-03 16:58:00,44.1,33.8,30.03,South,170,11.4,15.0,67,0.00,CLR,SKC,0.00,WeatherDisplay:10.37,2013-04-03 21:58:00,
2013-04-03 17:03:00,44.1,33.5,30.03,SSE,155,12.9,18.4,66,0.00,CLR,SKC,0.00,WeatherDisplay:10.37,2013-04-03 22:03:00,
2013-04-03 17:08:00,44.0,33.0,30.02,SSE,161,12.2,23.0,65,0.00,CLR,SKC,0.00,WeatherDisplay:10.37,2013-04-03 22:08:00,
2013-04-03 17:13:00,44.0,33.4,30.02,SSE,167,11.5,16.1,66,0.00,CLR,SKC,0.00,WeatherDisplay:10.37,2013-04-03 22:13:00,
2013-04-03 17:18:00,44.0,33.0,30.02,South,169,14.3,18.4,65,0.00,CLR,SKC,0.00,WeatherDisplay:10.37,2013-04-03 22:18:00,
2013-04-03 17:23:00,43.8,33.2,30.02,SW,217,13.8,18.4,66,0.00,CLR,SKC,0.00,WeatherDisplay:10.37,2013-04-03 22:23:00,
2013-04-03 17:28:00,43.8,33.6,30.02,South,179,13.0,18.4,67,0.00,CLR,SKC,0.00,WeatherDisplay:10.37,2013-04-03 22:28:00,
2013-04-03 17:33:00,43.9,33.3,30.02,South,183,14.8,18.4,66,0.00,CLR,SKC,0.00,WeatherDisplay:10.37,2013-04-03 22:33:00,
2013-04-03 17:38:00,43.8,33.9,30.01,South,170,12.3,17.3,68,0.00,CLR,SKC,0.00,WeatherDisplay:10.37,2013-04-03 22:38:00,
2013-04-03 17:43:00,43.8,33.6,30.01,South,175,13.5,17.3,67,0.00,CLR,SKC,0.00,WeatherDisplay:10.37,2013-04-03 22:43:00,
2013-04-03 17:48:00,43.7,33.1,30.01,SSE,163,14.2,19.6,66,0.00,CLR,SKC,0.00,WeatherDisplay:10.37,2013-04-03 22:48:00,
2013-04-03 17:53:00,43.5,33.6,30.01,SE,140,13.5,19.6,68,0.00,CLR,SKC,0.00,WeatherDisplay:10.37,2013-04-03 22:53:00,
2013-04-03 17:58:00,43.4,33.5,30.01,South,175,12.2,19.6,68,0.00,CLR,SKC,0.00,WeatherDisplay:10.37,2013-04-03 22:58:00,
2013-04-03 18:03:00,43.4,33.5,30.01,South,176,11.4,16.1,68,0.00,CLR,SKC,0.00,WeatherDisplay:10.37,2013-04-03 23:03:00,
2013-04-03 18:08:00,43.4,33.5,30.01,South,177,8.6,13.8,68,0.00,CLR,SKC,0.00,WeatherDisplay:10.37,2013-04-03 23:08:00,
2013-04-03 18:13:00,43.3,33.1,30.01,South,181,12.3,17.3,67,0.00,CLR,SKC,0.00,WeatherDisplay:10.37,2013-04-03 23:13:00,
2013-04-03 18:18:00,43.2,32.6,30.01,SSE,164,12.5,18.4,66,0.00,CLR,SKC,0.00,WeatherDisplay:10.37,2013-04-03 23:18:00,
2013-04-03 18:23:00,43.0,32.8,30.00,South,188,11.4,16.1,67,0.00,CLR,SKC,0.00,WeatherDisplay:10.37,2013-04-03 23:23:00,
2013-04-03 18:28:00,42.9,33.1,30.00,South,176,9.3,13.8,68,0.00,CLR,SKC,0.00,WeatherDisplay:10.37,2013-04-03 23:28:00,
2013-04-03 18:33:00,42.8,33.0,30.00,South,175,11.4,15.0,68,0.00,CLR,SKC,0.00,WeatherDisplay:10.37,2013-04-03 23:33:00,
2013-04-03 18:38:00,42.8,33.3,30.00,South,175,6.8,11.5,69,0.00,CLR,SKC,0.00,WeatherDisplay:10.37,2013-04-03 23:38:00,
2013-04-03 18:43:00,42.6,32.8,30.00,South,171,10.5,15.0,68,0.00,CLR,SKC,0.00,WeatherDisplay:10.37,2013-04-03 23:43:00,
2013-04-03 18:49:00,42.4,32.9,30.00,South,175,6.7,9.2,69,0.00,CLR,SKC,0.00,WeatherDisplay:10.37,2013-04-03 23:49:00,
2013-04-03 18:54:00,42.2,32.8,30.00,South,169,9.7,12.0,69,0.00,CLR,SKC,0.00,WeatherDisplay:10.37,2013-04-03 23:54:00,
2013-04-03 19:00:00,42.0,32.6,30.01,South,172,6.4,13.8,69,0.00,CLR,SKC,0.00,WeatherDisplay:10.37,2013-04-04 00:00:00,
2013-04-03 19:05:00,41.8,32.4,30.01,South,170,9.6,16.1,69,0.00,CLR,SKC,0.00,WeatherDisplay:10.37,2013-04-04 00:05:00,
2013-04-03 19:10:00,41.6,32.2,30.01,SSE,161,8.0,11.5,69,0.00,CLR,SKC,0.00,WeatherDisplay:10.37,2013-04-04 00:10:00,
2013-04-03 19:17:00,41.1,32.1,30.01,South,170,7.1,9.2,70,0.00,CLR,SKC,0.00,WeatherDisplay:10.37,2013-04-04 00:17:00,
2013-04-03 19:22:00,40.8,32.1,30.00,South,178,8.3,11.5,71,0.00,CLR,SKC,0.00,WeatherDisplay:10.37,2013-04-04 00:22:00,
2013-04-03 19:27:00,40.6,31.9,30.00,South,184,7.5,11.5,71,0.00,CLR,SKC,0.00,WeatherDisplay:10.37,2013-04-04 00:27:00,
2013-04-03 19:32:00,40.5,31.8,30.00,SSE,167,7.1,9.2,71,0.00,CLR,SKC,0.00,WeatherDisplay:10.37,2013-04-04 00:32:00,
2013-04-03 19:37:00,40.1,31.4,30.00,South,175,7.5,10.4,71,0.00,CLR,SKC,0.00,WeatherDisplay:10.37,2013-04-04 00:37:00,
2013-04-03 19:42:00,40.0,31.4,30.00,South,176,8.5,11.5,71,0.00,CLR,SKC,0.00,WeatherDisplay:10.37,2013-04-04 00:42:00,
2013-04-03 19:48:00,39.8,31.2,30.00,South,182,7.6,10.4,71,0.00,CLR,SKC,0.00,WeatherDisplay:10.37,2013-04-04 00:48:00,
2013-04-03 19:54:00,39.5,31.2,30.00,South,173,6.6,10.4,72,0.00,CLR,SKC,0.00,WeatherDisplay:10.37,2013-04-04 00:54:00,
2013-04-03 20:00:00,39.0,30.7,30.00,South,175,6.9,10.4,72,0.00,CLR,SKC,0.00,WeatherDisplay:10.37,2013-04-04 01:00:00,
2013-04-03 20:06:00,38.6,30.7,30.00,South,172,8.0,12.0,73,0.00,CLR,SKC,0.00,WeatherDisplay:10.37,2013-04-04 01:06:00,
2013-04-03 20:11:00,38.3,30.4,30.00,South,171,7.2,10.4,73,0.00,CLR,SKC,0.00,WeatherDisplay:10.37,2013-04-04 01:11:00,
2013-04-03 20:16:00,38.0,30.1,30.00,South,171,6.5,9.2,73,0.00,CLR,SKC,0.00,WeatherDisplay:10.37,2013-04-04 01:16:00,
2013-04-03 20:22:00,37.6,30.1,29.99,SSE,166,6.8,9.2,74,0.00,CLR,SKC,0.00,WeatherDisplay:10.37,2013-04-04 01:22:00,
2013-04-03 20:27:00,37.4,29.9,29.99,South,176,8.0,10.0,74,0.00,CLR,SKC,0.00,WeatherDisplay:10.37,2013-04-04 01:27:00,
2013-04-03 20:33:00,37.3,29.4,29.99,SSE,165,6.5,10.4,73,0.00,CLR,SKC,0.00,WeatherDisplay:10.37,2013-04-04 01:33:00,
2013-04-03 20:38:00,37.1,29.6,29.99,South,174,7.7,10.4,74,0.00,CLR,SKC,0.00,WeatherDisplay:10.37,2013-04-04 01:38:00,
2013-04-03 20:43:00,37.0,29.5,29.99,SSE,167,7.5,11.5,74,0.00,CLR,SKC,0.00,WeatherDisplay:10.37,2013-04-04 01:43:00,
2013-04-03 20:48:00,37.1,29.2,29.99,South,172,7.4,11.5,73,0.00,CLR,SKC,0.00,WeatherDisplay:10.37,2013-04-04 01:48:00,
2013-04-03 20:53:00,36.6,29.1,29.99,SSE,166,5.6,8.1,74,0.00,CLR,SKC,0.00,WeatherDisplay:10.37,2013-04-04 01:53:00,
2013-04-03 20:58:00,35.9,28.1,29.99,SSE,167,5.2,6.9,73,0.00,CLR,SKC,0.00,WeatherDisplay:10.37,2013-04-04 01:58:00,
2013-04-03 21:03:00,35.4,27.6,29.99,SSE,165,5.9,9.2,73,0.00,CLR,SKC,0.00,WeatherDisplay:10.37,2013-04-04 02:03:00,
2013-04-03 21:08:00,35.2,27.7,29.99,SSE,167,5.7,7.0,74,0.00,CLR,SKC,0.00,WeatherDisplay:10.37,2013-04-04 02:08:00,
2013-04-03 21:13:00,35.2,27.7,29.99,SSE,168,5.2,7.0,74,0.00,CLR,SKC,0.00,WeatherDisplay:10.37,2013-04-04 02:13:00,
2013-04-03 21:18:00,35.0,27.5,29.99,SSE,166,6.0,8.1,74,0.00,CLR,SKC,0.00,WeatherDisplay:10.37,2013-04-04 02:18:00,
2013-04-03 21:23:00,35.0,27.5,29.99,South,169,6.1,8.1,74,0.00,CLR,SKC,0.00,WeatherDisplay:10.37,2013-04-04 02:23:00,
2013-04-03 21:28:00,35.0,27.5,29.99,South,171,7.7,9.2,74,0.00,CLR,SKC,0.00,WeatherDisplay:10.37,2013-04-04 02:28:00,
2013-04-03 21:33:00,35.2,27.7,29.99,South,171,8.2,11.5,74,0.00,CLR,SKC,0.00,WeatherDisplay:10.37,2013-04-04 02:33:00,
2013-04-03 21:38:00,35.5,28.0,29.99,South,171,8.0,11.5,74,0.00,CLR,SKC,0.00,WeatherDisplay:10.37,2013-04-04 02:38:00,
2013-04-03 21:43:00,35.7,28.2,29.99,South,173,7.5,10.4,74,0.00,CLR,SKC,0.00,WeatherDisplay:10.37,2013-04-04 02:43:00,
2013-04-03 21:48:00,35.9,28.4,29.99,South,172,8.6,12.0,74,0.00,CLR,SKC,0.00,WeatherDisplay:10.37,2013-04-04 02:48:00,
2013-04-03 21:53:00,36.0,28.5,29.99,SSE,167,9.4,14.0,74,0.00,CLR,SKC,0.00,WeatherDisplay:10.37,2013-04-04 02:53:00,
2013-04-03 21:58:00,36.3,28.8,29.98,South,174,10.5,13.8,74,0.00,CLR,SKC,0.00,WeatherDisplay:10.37,2013-04-04 02:58:00,
2013-04-03 22:03:00,36.6,29.1,29.99,South,170,11.2,13.8,74,0.00,CLR,SKC,0.00,WeatherDisplay:10.37,2013-04-04 03:03:00,
2013-04-03 22:08:00,36.7,29.2,29.98,South,171,12.1,16.1,74,0.00,CLR,SKC,0.00,WeatherDisplay:10.37,2013-04-04 03:08:00,
2013-04-03 22:13:00,36.8,29.3,29.98,South,171,12.9,18.4,74,0.00,CLR,SKC,0.00,WeatherDisplay:10.37,2013-04-04 03:13:00,
2013-04-03 22:18:00,36.7,29.2,29.98,South,169,12.5,15.0,74,0.00,CLR,SKC,0.00,WeatherDisplay:10.37,2013-04-04 03:18:00,
2013-04-03 22:24:00,36.7,29.2,29.97,South,180,12.2,16.1,74,0.00,CLR,SKC,0.00,WeatherDisplay:10.37,2013-04-04 03:24:00,
2013-04-03 22:29:00,36.7,29.2,29.97,South,180,12.6,17.3,74,0.00,CLR,SKC,0.00,WeatherDisplay:10.37,2013-04-04 03:29:00,
2013-04-03 22:34:00,36.6,29.1,29.97,SSE,168,10.6,13.0,74,0.00,CLR,SKC,0.00,WeatherDisplay:10.37,2013-04-04 03:34:00,
2013-04-03 22:39:00,36.5,29.0,29.97,South,177,11.7,15.0,74,0.00,CLR,SKC,0.00,WeatherDisplay:10.37,2013-04-04 03:39:00,
2013-04-03 22:44:00,36.6,29.1,29.96,SSE,165,13.5,18.4,74,0.00,CLR,SKC,0.00,WeatherDisplay:10.37,2013-04-04 03:44:00,
2013-04-03 22:49:00,36.5,29.0,29.96,South,180,11.9,17.3,74,0.00,CLR,SKC,0.00,WeatherDisplay:10.37,2013-04-04 03:49:00,
2013-04-03 22:54:00,36.4,28.9,29.96,SSE,165,11.5,16.1,74,0.00,CLR,SKC,0.00,WeatherDisplay:10.37,2013-04-04 03:54:00,
2013-04-03 22:59:00,36.3,28.8,29.95,South,170,9.6,14.0,74,0.00,CLR,SKC,0.00,WeatherDisplay:10.37,2013-04-04 03:59:00,
2013-04-03 23:00:00,36.3,28.8,29.95,SE,142,11.3,15.0,74,0.00,CLR,SKC,0.00,WeatherDisplay:10.37,2013-04-04 04:00:00,
2013-04-03 23:01:00,36.3,28.8,29.95,SSE,160,11.7,17.3,74,0.00,CLR,SKC,0.00,WeatherDisplay:10.37,2013-04-04 04:01:00,
2013-04-03 23:03:00,36.4,28.9,29.95,South,191,10.9,17.3,74,0.00,CLR,SKC,0.00,WeatherDisplay:10.37,2013-04-04 04:03:00,
2013-04-03 23:08:00,36.4,28.9,29.95,South,182,11.3,16.1,74,0.00,CLR,SKC,0.00,WeatherDisplay:10.37,2013-04-04 04:08:00,
2013-04-03 23:09:00,36.4,28.9,29.95,South,175,11.6,15.0,74,0.00,CLR,SKC,0.00,WeatherDisplay:10.37,2013-04-04 04:09:00,
2013-04-03 23:15:00,36.4,28.9,29.95,SSE,159,11.5,15.0,74,0.00,CLR,SKC,0.00,WeatherDisplay:10.37,2013-04-04 04:15:00,
2013-04-03 23:20:00,36.5,28.7,29.95,South,179,11.3,15.0,73,0.00,CLR,SKC,0.00,WeatherDisplay:10.37,2013-04-04 04:20:00,
2013-04-03 23:25:00,36.6,28.8,29.95,SW,225,9.9,17.3,73,0.00,CLR,SKC,0.00,WeatherDisplay:10.37,2013-04-04 04:25:00,
2013-04-03 23:30:00,36.7,28.9,29.94,SSE,163,11.1,14.0,73,0.00,CLR,SKC,0.00,WeatherDisplay:10.37,2013-04-04 04:30:00,
2013-04-03 23:35:00,36.9,28.7,29.94,South,169,10.2,17.3,72,0.00,CLR,SKC,0.00,WeatherDisplay:10.37,2013-04-04 04:35:00,
2013-04-03 23:40:00,36.9,28.7,29.94,South,175,11.2,15.0,72,0.00,CLR,SKC,0.00,WeatherDisplay:10.37,2013-04-04 04:40:00,
2013-04-03 23:45:00,37.0,28.8,29.94,South,179,11.4,17.3,72,0.00,CLR,SKC,0.00,WeatherDisplay:10.37,2013-04-04 04:45:00,
2013-04-03 23:50:00,37.3,28.8,29.94,SW,232,11.7,17.3,71,0.00,CLR,SKC,0.00,WeatherDisplay:10.37,2013-04-04 04:50:00,
2013-04-03 23:55:00,37.4,28.9,29.94,SSE,167,12.6,17.3,71,0.00,CLR,SKC,0.00,WeatherDisplay:10.37,2013-04-04 04:55:00,